Location: A�t Bou Chrif
(32.7193°N, 5.2385°W)
Time: 00:49:14
(UTC+00:00)

Cosmos 1656 - Pass Details

Date: 08 August 2020
Orbit: 798 x 849 km, 71.1° (Epoch: 18 September)

Event Time Altitude Azimuth Distance (km) Brightness Sun altitude
Rises 21:05:28 0° 339° (NNW) 3,329 7.8 -21.7°
Reaches altitude 10° 21:07:53 10° 339° (NNW) 2,401 6.9 -22.1°
Maximum altitude 21:13:23 86° 251° (WSW) 826 3.6 -23.0°
Enters shadow 21:14:56 50° 166° (SSE) 1,041 3.8 -23.3°
